Time,TemperatureF,DewpointF,PressureIn,WindDirection,WindDirectionDegrees,WindSpeedMPH,WindSpeedGustMPH,Humidity,HourlyPrecipIn,Conditions,Clouds,dailyrainin,SoftwareType,DateUTC
2015-08-03 00:04:00,74.0,62.0,-100.00,South,190,5.0,7.0,66,-99.99,,,-99.99,,2015-08-03 04:04:00,
2015-08-03 00:13:00,73.0,62.0,-100.00,SSW,195,4.0,7.0,67,-99.99,,,-99.99,,2015-08-03 04:13:00,
2015-08-03 00:24:00,73.0,62.0,-100.00,SSW,205,5.0,9.0,68,-99.99,,,-99.99,,2015-08-03 04:24:00,
2015-08-03 00:34:00,72.0,62.0,-100.00,SSW,210,6.0,7.0,69,-99.99,,,-99.99,,2015-08-03 04:34:00,
2015-08-03 00:43:00,72.0,62.0,-100.00,SSW,205,6.0,8.0,69,-99.99,,,-99.99,,2015-08-03 04:43:00,
2015-08-03 00:53:00,72.0,62.0,-100.00,SSW,205,6.0,7.0,69,-99.99,,,-99.99,,2015-08-03 04:53:00,
2015-08-03 01:03:00,72.0,62.0,-100.00,SW,215,5.0,9.0,69,-99.99,,,-99.99,,2015-08-03 05:03:00,
2015-08-03 01:13:00,72.0,62.0,-100.00,SSW,195,5.0,7.0,70,-99.99,,,-99.99,,2015-08-03 05:13:00,
2015-08-03 01:23:00,72.0,61.0,-100.00,SSW,200,6.0,9.0,70,-99.99,,,-99.99,,2015-08-03 05:23:00,
2015-08-03 01:34:00,72.0,61.0,-100.00,SW,215,6.0,9.0,69,-99.99,,,-99.99,,2015-08-03 05:34:00,
2015-08-03 01:43:00,72.0,61.0,-100.00,SSW,205,7.0,10.0,69,-99.99,,,-99.99,,2015-08-03 05:43:00,
2015-08-03 01:53:00,71.0,61.0,-100.00,SW,220,6.0,9.0,70,-99.99,,,-99.99,,2015-08-03 05:53:00,
2015-08-03 02:04:00,71.0,61.0,-100.00,SW,215,5.0,8.0,70,-99.99,,,-99.99,,2015-08-03 06:04:00,
2015-08-03 02:13:00,71.0,61.0,-100.00,SW,215,7.0,9.0,71,-99.99,,,-99.99,,2015-08-03 06:13:00,
2015-08-03 02:23:00,71.0,61.0,-100.00,SW,220,6.0,9.0,72,-99.99,,,-99.99,,2015-08-03 06:23:00,
2015-08-03 02:33:00,70.0,61.0,-100.00,SSW,205,6.0,7.0,74,-99.99,,,-99.99,,2015-08-03 06:33:00,
2015-08-03 02:44:00,69.0,62.0,-100.00,SW,220,4.0,7.0,75,-99.99,,,-99.99,,2015-08-03 06:44:00,
2015-08-03 02:53:00,69.0,62.0,-100.00,SW,220,4.0,7.0,75,-99.99,,,-99.99,,2015-08-03 06:53:00,
2015-08-03 03:03:00,70.0,61.0,-100.00,SW,220,4.0,7.0,72,-99.99,,,-99.99,,2015-08-03 07:03:00,
2015-08-03 03:13:00,70.0,61.0,-100.00,SW,220,4.0,7.0,72,-99.99,,,-99.99,,2015-08-03 07:13:00,
2015-08-03 03:23:00,71.0,60.0,-100.00,SW,220,7.0,11.0,69,-99.99,,,-99.99,,2015-08-03 07:23:00,
2015-08-03 03:33:00,70.0,60.0,-100.00,WSW,250,4.0,8.0,71,-99.99,,,-99.99,,2015-08-03 07:33:00,
2015-08-03 03:43:00,69.0,61.0,-100.00,SW,230,4.0,6.0,73,-99.99,,,-99.99,,2015-08-03 07:43:00,
2015-08-03 03:53:00,69.0,60.0,-100.00,SW,235,6.0,9.0,73,-99.99,,,-99.99,,2015-08-03 07:53:00,
2015-08-03 04:03:00,70.0,60.0,-100.00,SW,230,4.0,9.0,72,-99.99,,,-99.99,,2015-08-03 08:03:00,
2015-08-03 04:13:00,70.0,60.0,-100.00,WSW,255,4.0,9.0,72,-99.99,,,-99.99,,2015-08-03 08:13:00,
2015-08-03 04:23:00,69.0,60.0,-100.00,WNW,295,3.0,5.0,74,-99.99,,,-99.99,,2015-08-03 08:23:00,
2015-08-03 04:33:00,69.0,60.0,-100.00,NW,315,3.0,6.0,73,-99.99,,,-99.99,,2015-08-03 08:33:00,
2015-08-03 04:43:00,69.0,60.0,-100.00,NNE,30,4.0,9.0,73,-99.99,,,-99.99,,2015-08-03 08:43:00,
2015-08-03 04:53:00,70.0,61.0,-100.00,North,0,4.0,11.0,73,-99.99,,,-99.99,,2015-08-03 08:53:00,
2015-08-03 05:03:00,71.0,61.0,-100.00,North,350,1.0,9.0,71,-99.99,,,-99.99,,2015-08-03 09:03:00,
2015-08-03 05:12:00,70.0,61.0,-100.00,North,0,4.0,12.0,72,-99.99,,,-99.99,,2015-08-03 09:12:00,
2015-08-03 05:23:00,71.0,58.0,-100.00,North,10,7.0,19.0,63,-99.99,,,-99.99,,2015-08-03 09:23:00,
2015-08-03 05:34:00,70.0,57.0,-100.00,NW,325,6.0,14.0,63,-99.99,,,-99.99,,2015-08-03 09:34:00,
2015-08-03 05:44:00,70.0,57.0,-100.00,North,0,7.0,14.0,64,-99.99,,,-99.99,,2015-08-03 09:44:00,
2015-08-03 05:53:00,69.0,57.0,-100.00,North,5,6.0,11.0,65,-99.99,,,-99.99,,2015-08-03 09:53:00,
2015-08-03 06:03:00,69.0,57.0,-100.00,North,10,3.0,9.0,66,-99.99,,,-99.99,,2015-08-03 10:03:00,
2015-08-03 06:13:00,69.0,57.0,-100.00,North,350,2.0,8.0,67,-99.99,,,-99.99,,2015-08-03 10:13:00,
2015-08-03 06:23:00,68.0,58.0,-100.00,North,5,6.0,9.0,69,-99.99,,,-99.99,,2015-08-03 10:23:00,
2015-08-03 06:33:00,67.0,58.0,-100.00,WNW,285,2.0,6.0,73,-99.99,,,-99.99,,2015-08-03 10:33:00,
2015-08-03 06:43:00,67.0,58.0,-100.00,NNW,330,0.0,4.0,75,-99.99,,,-99.99,,2015-08-03 10:43:00,
2015-08-03 06:53:00,66.0,59.0,-100.00,West,280,1.0,3.0,78,-99.99,,,-99.99,,2015-08-03 10:53:00,
2015-08-03 07:03:00,65.0,60.0,-100.00,West,260,3.0,4.0,81,-99.99,,,-99.99,,2015-08-03 11:03:00,
2015-08-03 07:13:00,64.0,61.0,-100.00,SW,225,3.0,5.0,88,-99.99,,,-99.99,,2015-08-03 11:13:00,
2015-08-03 07:23:00,64.0,60.0,-100.00,SSE,155,1.0,3.0,86,-99.99,,,-99.99,,2015-08-03 11:23:00,
2015-08-03 07:34:00,64.0,61.0,-100.00,SSW,195,3.0,5.0,88,-99.99,,,-99.99,,2015-08-03 11:34:00,
2015-08-03 07:44:00,64.0,61.0,-100.00,SW,215,7.0,12.0,90,-99.99,,,-99.99,,2015-08-03 11:44:00,
2015-08-03 07:53:00,63.0,61.0,-100.00,SSW,205,9.0,14.0,90,-99.99,,,-99.99,,2015-08-03 11:53:00,
2015-08-03 08:03:00,64.0,61.0,-100.00,SW,215,4.0,16.0,90,-99.99,,,-99.99,,2015-08-03 12:03:00,
2015-08-03 08:14:00,65.0,60.0,-100.00,SW,220,9.0,12.0,84,-99.99,,,-99.99,,2015-08-03 12:14:00,
2015-08-03 08:23:00,65.0,60.0,-100.00,SW,215,19.0,27.0,82,-99.99,,,-99.99,,2015-08-03 12:23:00,
2015-08-03 08:34:00,66.0,59.0,-100.00,SSW,200,17.0,29.0,76,-99.99,,,-99.99,,2015-08-03 12:34:00,
2015-08-03 08:44:00,68.0,58.0,-100.00,SW,215,12.0,23.0,71,-99.99,,,-99.99,,2015-08-03 12:44:00,
2015-08-03 08:54:00,67.0,58.0,-100.00,SSW,205,11.0,24.0,71,-99.99,,,-99.99,,2015-08-03 12:54:00,
2015-08-03 09:03:00,68.0,58.0,-100.00,SSW,210,10.0,16.0,71,-99.99,,,-99.99,,2015-08-03 13:03:00,
2015-08-03 09:13:00,68.0,58.0,-100.00,WSW,245,9.0,15.0,71,-99.99,,,-99.99,,2015-08-03 13:13:00,
2015-08-03 09:23:00,68.0,59.0,-100.00,SW,230,10.0,15.0,72,-99.99,,,-99.99,,2015-08-03 13:23:00,
2015-08-03 09:34:00,68.0,60.0,-100.00,SW,230,7.0,9.0,75,-99.99,,,-99.99,,2015-08-03 13:34:00,
2015-08-03 09:43:00,69.0,60.0,-100.00,SW,230,7.0,10.0,73,-99.99,,,-99.99,,2015-08-03 13:43:00,
2015-08-03 09:53:00,69.0,60.0,-100.00,WSW,245,7.0,12.0,73,-99.99,,,-99.99,,2015-08-03 13:53:00,
2015-08-03 10:03:00,69.0,61.0,-100.00,SW,235,5.0,12.0,75,-99.99,,,-99.99,,2015-08-03 14:03:00,
2015-08-03 10:13:00,70.0,60.0,-100.00,SW,235,9.0,11.0,72,-99.99,,,-99.99,,2015-08-03 14:13:00,
2015-08-03 10:23:00,71.0,60.0,-100.00,SW,220,11.0,16.0,68,-99.99,,,-99.99,,2015-08-03 14:23:00,
2015-08-03 10:33:00,72.0,60.0,-100.00,SW,230,11.0,17.0,67,-99.99,,,-99.99,,2015-08-03 14:33:00,
2015-08-03 10:43:00,72.0,60.0,-100.00,SW,230,11.0,17.0,67,-99.99,,,-99.99,,2015-08-03 14:43:00,
2015-08-03 10:53:00,74.0,61.0,-100.00,SW,235,8.0,15.0,64,-99.99,,,-99.99,,2015-08-03 14:53:00,
2015-08-03 11:03:00,74.0,61.0,-100.00,SW,235,8.0,15.0,64,-99.99,,,-99.99,,2015-08-03 15:03:00,
2015-08-03 11:12:00,76.0,61.0,-100.00,SW,220,9.0,16.0,59,-99.99,,,-99.99,,2015-08-03 15:12:00,
2015-08-03 11:23:00,76.0,61.0,-100.00,WSW,250,7.0,14.0,60,-99.99,,,-99.99,,2015-08-03 15:23:00,
2015-08-03 11:33:00,77.0,62.0,-100.00,SW,235,10.0,17.0,58,-99.99,,,-99.99,,2015-08-03 15:33:00,
2015-08-03 11:54:00,78.0,64.0,-100.00,SW,235,7.0,13.0,61,-99.99,,,-99.99,,2015-08-03 15:54:00,
2015-08-03 12:03:00,79.0,62.0,-100.00,SW,215,11.0,15.0,56,-99.99,,,-99.99,,2015-08-03 16:03:00,
2015-08-03 12:21:00,80.0,61.0,-100.00,WSW,240,9.0,-999.0,52,-99.99,,,-99.99,,2015-08-03 16:21:00,
2015-08-03 12:33:00,81.0,62.0,-100.00,WSW,250,11.0,20.0,53,-99.99,,,-99.99,,2015-08-03 16:33:00,
2015-08-03 12:44:00,80.0,62.0,-100.00,SW,225,12.0,25.0,53,-99.99,,,-99.99,,2015-08-03 16:44:00,
2015-08-03 12:55:00,81.0,63.0,-100.00,SW,235,13.0,-999.0,55,-99.99,,,-99.99,,2015-08-03 16:55:00,
2015-08-03 13:04:00,81.0,64.0,-100.00,WSW,255,12.0,28.0,55,-99.99,,,-99.99,,2015-08-03 17:04:00,
2015-08-03 13:14:00,82.0,64.0,-100.00,West,270,14.0,22.0,56,-99.99,,,-99.99,,2015-08-03 17:14:00,
2015-08-03 13:24:00,82.0,64.0,-100.00,SW,230,14.0,25.0,56,-99.99,,,-99.99,,2015-08-03 17:24:00,
2015-08-03 13:34:00,82.0,64.0,-100.00,WSW,245,10.0,22.0,55,-99.99,,,-99.99,,2015-08-03 17:34:00,
2015-08-03 13:54:00,82.0,63.0,-100.00,WSW,240,11.0,22.0,52,-99.99,,,-99.99,,2015-08-03 17:54:00,
2015-08-03 14:04:00,82.0,62.0,-100.00,SSW,200,17.0,23.0,49,-99.99,,,-99.99,,2015-08-03 18:04:00,
2015-08-03 14:28:00,83.0,64.0,-100.00,WSW,255,9.0,19.0,53,-99.99,,,-99.99,,2015-08-03 18:28:00,
2015-08-03 14:34:00,83.0,64.0,-100.00,SW,235,14.0,21.0,52,-99.99,,,-99.99,,2015-08-03 18:34:00,
2015-08-03 15:04:00,83.0,64.0,-100.00,WSW,250,16.0,22.0,52,-99.99,,,-99.99,,2015-08-03 19:04:00,